Location: Wildlife_Club
(35.6000°N, 81.4330°W)
Time: 19:26:49
(UTC-04:00)

A-11 Canister half - Pass Details

Date: 28 June 2019
Orbit: 1514 x 1685 km, 47.2° (Epoch: 19 July)

Event Time Altitude Azimuth Distance (km) Brightness Sun altitude
Rises 17:22:21 0° 302° (WNW) 4,797 12.3 38.5°
Reaches altitude 10° 17:25:34 10° 298° (WNW) 3,786 12.1 37.8°
Maximum altitude 17:34:43 53° 225° (SW) 1,832 10.4 36.0°
Drops below altitude 10° 17:43:37 10° 151° (SSE) 3,673 10.8 34.2°
Sets 17:46:42 0° 147° (SSE) 4,645 11.2 33.5°
